Location: �terpigny
(49.8910°N, 2.9249°E)
Time: 17:19:17
(UTC+00:00)

DIWATA 2B (PO-101) - Pass Details

Date: 27 June 2022
Orbit: 583 x 599 km, 98.0° (Epoch: 19 August)

Event Time Altitude Azimuth Distance (km) Brightness Sun altitude
Exits shadow 02:41:09 10° 221° (SW) 1,954 ? -7.7°
Reaches altitude 10° 02:41:12 10° 221° (SW) 1,935 ? -7.7°
Maximum altitude 02:44:17 20° 268° (W) 1,422 ? -7.4°
Drops below altitude 10° 02:47:23 10° 316° (NW) 1,951 ? -7.0°
Sets 02:50:05 0° 334° (NNW) 2,860 ? -6.8°
